Lapse_Rate
4.9 1.6 1.4 1.9 2.2 2.3 2.1 1.8 1.5 1.6 1.9 2.4 2.6 2.8 3.1 3.2 3.6 3.9 3.9 4.3 4.6 4.8 5.0 4.9 4.5 4.3 4.1 4.1 3.9 3.7 3.5 3.5 3.7 4.0 4.3 4.6 5.0 5.7 6.4 7.0 5.9 4.8 4.4
4.1 2.2 1.3 1.9 2.3 2.3 2.1 2.0 1.7 1.9 2.1 2.3 2.5 2.9 3.2 3.3 3.7 4.1 4.3 4.4 4.7 4.7 4.6 4.4 4.4 4.0 3.8 3.6 3.4 3.5 3.7 3.7 3.8 4.0 4.3 4.6 4.7 4.9 4.9 5.3 4.8 4.5 4.5
3.8 2.1 2.3 1.8 2.3 2.3 2.3 2.2 2.1 2.2 2.3 2.3 2.5 2.9 3.3 3.5 3.8 4.0 4.2 4.4 4.5 4.6 4.4 4.3 4.3 3.9 3.5 3.2 3.3 3.6 3.9 4.1 4.5 5.1 5.5 5.3 4.2 4.5 4.6 4.3 4.0 4.1 4.3
4.3 2.8 2.6 1.6 2.1 2.3 2.3 2.4 2.4 2.6 2.4 2.3 2.7 3.0 3.4 3.6 3.8 3.8 4.0 4.3 4.5 4.6 4.4 4.3 4.1 3.7 3.2 3.1 3.4 3.7 4.1 4.3 4.6 5.2 7.5 6.3 5.3 4.2 4.4 4.1 4.1 4.2 4.2
5.2 4.7 2.8 1.4 2.0 2.3 2.3 2.4 2.5 2.6 2.5 2.4 2.7 2.9 3.5 3.6 3.7 3.8 4.0 4.2 4.4 4.5 4.7 4.3 3.8 3.1 3.0 3.1 3.3 3.7 4.1 4.1 4.4 5.1 7.9 6.6 5.4 4.1 4.0 4.1 4.1 3.7 4.4
8.0 6.4 0.5 1.0 1.8 2.2 2.4 2.5 2.6 2.4 2.4 2.5 2.8 3.1 3.3 3.8 3.8 3.7 4.0 4.1 4.3 4.3 4.4 4.1 3.4 2.9 3.0 3.1 3.4 3.7 3.7 3.8 4.0 5.6 8.2 7.3 4.9 3.7 3.7 3.4 3.7 3.5 3.6
8.9 4.6 1.9 1.0 1.3 2.0 2.5 2.6 2.6 2.4 2.5 2.7 2.9 3.2 3.3 3.7 3.8 3.8 4.0 4.1 4.2 4.3 4.0 3.4 2.9 2.9 3.0 3.1 3.3 3.4 3.9 4.3 4.3 7.0 7.5 5.3 3.7 3.5 3.5 3.3 3.3 3.3 3.4
7.5 5.0 2.1 1.1 1.2 1.6 2.3 2.5 2.4 2.5 2.6 2.7 3.0 3.2 3.3 3.5 3.8 3.8 4.0 4.0 4.0 4.0 3.5 3.2 3.1 3.0 2.9 3.1 3.2 3.5 4.0 3.6 4.5 7.4 7.4 4.4 3.2 3.5 3.5 3.1 3.1 3.2 3.3
5.8 5.2 3.0 2.6 2.0 1.6 2.0 2.1 2.4 2.6 2.7 2.9 3.0 3.1 3.3 3.6 3.6 3.8 3.8 3.8 3.7 3.6 3.3 3.3 3.2 3.1 3.1 3.0 3.2 3.5 3.9 4.5 3.5 4.9 6.0 3.8 3.3 3.5 3.4 3.0 3.0 3.2 3.3
5.6 4.9 3.7 3.7 3.2 2.8 2.0 2.0 2.5 2.7 2.9 3.1 3.2 3.2 3.3 3.3 3.6 3.6 3.5 3.5 3.5 3.5 3.3 3.4 3.4 3.3 3.2 3.0 3.4 3.7 4.5 4.2 4.4 6.3 6.4 4.0 3.7 3.7 3.5 3.1 3.2 3.2 3.3
6.8 5.5 4.5 4.6 4.4 4.1 3.6 2.4 2.3 2.8 3.1 3.2 3.2 3.3 3.1 4.1 3.6 2.8 4.0 3.5 3.3 3.4 3.5 3.5 3.4 3.3 3.1 2.8 3.4 3.9 4.1 4.3 6.5 8.2 4.9 3.7 3.6 3.9 3.7 3.3 3.2 3.4 3.6
7.4 6.7 5.7 5.1 5.0 5.3 5.6 2.9 4.0 4.1 3.9 4.3 4.4 3.1 4.5 5.8 5.0 5.0 4.9 3.8 3.5 3.4 3.5 3.6 3.5 3.3 3.1 4.3 4.0 4.1 3.7 5.8 8.1 8.3 4.0 3.3 3.7 3.8 3.7 3.4 3.3 3.4 3.5
8.2 8.3 7.3 5.9 5.4 5.8 7.7 3.3 4.9 5.3 5.5 5.6 5.6 4.5 5.5 6.9 5.9 6.8 3.2 3.2 3.2 3.2 3.5 3.3 3.0 3.4 4.6 5.0 6.9 5.2 6.1 7.4 8.8 8.3 4.2 3.7 4.0 4.0 4.0 3.8 3.6 3.5 3.6
7.7 8.4 8.0 7.6 6.6 6.2 8.0 5.1 5.8 6.0 6.3 6.1 6.0 5.2 5.8 7.0 6.8 7.3 5.7 4.8 4.3 3.9 4.9 4.4 4.5 4.8 5.7 6.5 7.3 8.0 7.6 8.4 8.7 7.9 3.8 4.6 4.1 4.2 4.1 4.0 3.8 3.8 3.7
7.4 7.6 7.5 7.9 7.4 6.7 6.5 6.5 6.5 7.2 7.1 6.6 6.3 6.0 6.5 7.0 6.8 7.5 7.7 6.4 5.0 4.8 5.1 4.5 5.2 5.0 5.5 6.3 7.4 7.7 8.0 8.7 8.4 7.8 5.2 4.5 4.6 4.4 4.3 4.4 4.1 3.9 3.7
8.0 7.4 6.9 7.6 7.5 7.3 6.7 6.2 5.9 7.2 7.5 7.7 7.5 6.6 6.2 7.0 7.1 6.9 6.5 6.7 6.3 6.8 6.2 6.3 5.6 5.0 4.7 6.1 6.2 7.5 7.7 8.4 8.8 8.5 8.0 5.5 5.6 5.3 4.5 4.2 3.9 3.9 3.8
7.5 7.7 6.6 6.7 7.1 7.3 6.7 7.1 6.6 7.3 8.0 7.4 8.2 7.6 6.2 7.3 7.7 7.2 5.9 6.1 7.1 8.2 7.4 7.1 7.0 7.0 5.8 6.6 6.6 6.9 7.1 7.3 7.6 8.0 8.4 8.5 5.9 5.5 5.0 4.6 4.1 3.8 3.8
7.8 7.7 6.8 7.9 7.2 6.9 7.1 7.5 8.0 7.4 7.0 7.8 8.2 8.0 7.3 7.4 8.3 7.0 6.4 6.3 8.0 7.7 7.1 5.9 6.1 6.0 6.0 6.1 5.9 5.7 5.9 6.7 7.0 7.0 7.6 7.8 8.2 6.5 4.7 4.2 4.1 3.8 3.9
8.1 6.5 6.8 6.9 7.1 6.7 6.7 7.3 7.7 7.0 6.9 7.6 8.0 7.9 7.3 7.4 7.7 7.5 6.5 6.7 7.9 6.5 6.0 6.2 5.9 5.9 5.8 5.6 6.0 5.7 5.6 5.7 5.4 7.7 6.5 6.7 7.4 7.8 7.1 5.3 4.1 3.7 3.7
7.7 6.2 7.1 6.2 6.8 6.8 6.9 7.1 8.1 7.8 7.2 7.7 7.5 7.9 7.4 7.2 7.2 6.9 7.4 6.2 7.1 6.0 5.8 5.9 5.9 5.5 5.6 5.6 8.0 7.5 4.8 4.7 5.1 5.2 5.6 7.4 7.2 7.4 7.6 7.4 4.6 2.7 3.1
7.3 6.8 7.2 6.7 6.2 7.0 7.7 7.2 7.7 8.0 7.8 7.8 7.6 7.9 7.1 7.0 6.5 5.7 6.1 6.2 6.2 6.2 5.8 5.3 5.3 5.8 5.3 5.2 5.8 5.1 4.6 4.9 4.8 4.8 4.1 4.3 5.7 7.2 7.2 7.3 6.9 4.3 4.7
7.5 6.9 6.4 7.3 5.8 7.0 7.3 7.7 8.4 8.2 8.3 8.2 7.9 7.2 7.7 6.7 6.5 6.1 5.5 6.5 6.5 6.3 5.7 5.7 5.5 5.3 5.2 5.2 5.1 5.5 5.0 4.7 5.2 4.9 5.0 5.0 4.4 6.2 6.5 6.9 7.1 7.2 7.1
5.7 4.1 3.1 6.5 6.6 6.6 7.5 8.1 8.1 8.4 7.9 8.0 7.7 7.7 7.2 7.1 7.0 6.6 5.8 5.8 6.1 6.3 5.9 5.2 5.4 5.5 5.5 4.6 5.2 5.2 5.1 4.5 4.5 4.3 4.4 4.5 4.9 4.3 4.2 5.8 6.5 6.8 7.1
8.3 7.0 5.0 2.4 6.6 7.0 6.9 7.8 6.9 7.6 8.1 8.1 8.1 7.9 7.6 7.1 7.0 7.0 6.7 6.0 5.7 6.1 6.6 6.1 5.8 5.4 5.4 5.5 5.1 6.5 5.0 4.5 4.6 3.7 4.0 4.7 4.9 5.2 3.9 3.5 4.2 6.2 6.8
8.7 7.9 6.3 3.2 2.2 2.5 7.0 6.8 5.9 6.6 7.1 8.3 7.8 6.9 7.2 7.2 7.2 7.3 7.2 6.9 6.6 6.1 6.0 6.3 6.1 5.5 5.6 5.4 5.4 5.1 5.6 5.1 3.4 4.2 3.9 4.3 5.1 4.9 4.5 4.0 4.2 4.6 6.5
8.7 7.1 7.9 4.4 2.5 1.7 0.6 4.8 6.1 6.0 6.9 6.1 6.5 6.5 6.4 6.8 6.9 7.1 7.5 7.2 7.0 6.9 6.4 5.8 6.2 5.5 5.6 5.4 5.1 5.1 5.2 5.9 4.9 4.0 4.4 3.8 4.1 4.2 5.2 4.9 4.5 4.7 6.4
Wind_Speed
16 20 22 23 22 21 19 20 20 21 20 18 17 16 17 18 18 17 19 18 17 17 17 17 17 18 20 20 20 21 21 22 22 20 20 19 18 15 12 19 21 18 19
20 22 22 24 23 22 20 20 20 21 20 19 18 16 16 18 18 18 17 18 17 17 18 18 18 18 18 17 18 18 19 20 21 20 19 19 18 19 21 25 20 18 17
20 22 24 23 23 23 22 19 19 21 20 18 18 17 16 17 18 18 18 18 18 18 17 17 17 17 16 16 16 16 16 18 19 23 22 17 15 17 20 21 17 16 16
18 19 22 22 23 22 23 21 19 21 21 19 17 17 16 16 17 18 19 18 18 18 17 17 17 16 15 15 14 13 13 13 14 12 9 16 15 15 16 14 14 14 14
17 19 21 22 23 21 23 22 20 20 20 19 18 18 15 16 16 17 18 18 17 17 16 17 16 15 15 15 12 10 11 9 6 6 7 20 15 12 12 11 11 9 11
16 19 22 21 24 21 22 22 20 20 21 20 18 17 18 16 15 16 17 17 16 17 16 16 15 14 15 13 10 7 4 3 4 9 13 19 17 13 10 11 13 11 11
15 20 21 19 23 22 22 23 20 20 22 21 20 17 17 16 16 16 16 15 15 16 16 16 15 15 14 11 7 4 3 7 8 10 19 20 16 12 10 10 10 9 8
14 15 19 16 19 23 23 23 22 21 22 22 20 17 17 17 17 16 15 14 15 16 16 16 17 16 13 9 6 4 7 9 12 10 21 19 18 14 11 10 8 7 7
16 13 15 16 16 18 23 24 23 22 22 21 22 19 17 16 17 15 15 14 15 15 15 17 17 16 13 9 5 4 8 11 12 12 20 19 19 15 12 10 8 7 6
12 13 11 14 16 16 16 22 24 22 22 21 20 19 19 17 15 14 13 13 14 14 16 17 17 14 11 8 5 5 9 14 14 15 20 18 21 16 12 10 9 8 7
9 10 9 9 14 16 16 16 20 21 21 20 19 19 18 13 13 13 13 16 13 13 14 16 16 14 10 7 7 7 10 13 17 10 16 29 23 17 13 12 11 9 8
9 8 7 8 10 15 16 17 16 17 16 16 16 15 14 15 15 15 15 17 13 12 13 14 14 12 9 10 10 10 11 16 14 9 16 27 24 20 16 14 12 12 11
13 10 10 7 8 9 8 15 14 14 15 16 18 18 16 14 16 14 12 13 11 11 11 11 11 10 12 14 14 15 15 17 8 7 19 24 22 20 17 15 14 13 12
15 15 14 11 8 7 8 10 13 11 15 13 17 20 14 9 12 11 12 14 13 14 13 15 12 13 15 17 15 11 17 9 6 2 21 24 22 19 17 16 15 14 14
9 14 16 14 10 9 6 9 9 8 12 15 17 19 16 10 7 10 10 14 14 17 14 13 12 13 11 13 14 11 6 4 10 12 12 19 18 18 18 16 17 16 16
8 16 16 16 13 11 10 9 6 10 15 15 16 18 20 14 8 6 5 8 13 15 16 13 11 7 7 10 7 10 9 10 10 12 10 16 19 20 21 21 19 18 18
6 9 17 17 16 13 11 8 8 10 15 11 14 19 21 15 10 10 5 5 10 15 18 15 12 11 6 8 7 8 12 12 11 11 9 12 19 22 24 25 24 22 20
8 9 15 16 18 16 11 7 8 6 7 11 12 17 22 18 14 10 6 5 11 13 10 5 4 5 5 4 5 5 5 11 12 15 16 14 12 13 25 27 28 28 26
11 11 13 16 17 18 14 10 7 7 7 8 13 13 18 20 16 9 5 6 12 5 4 4 4 4 4 4 5 5 5 5 5 12 12 17 19 19 11 23 30 29 29
16 8 13 15 15 16 12 11 7 6 5 10 7 10 18 18 17 12 9 6 11 5 4 3 5 5 4 4 7 7 6 6 6 5 6 12 17 21 23 18 18 21 28
17 10 11 14 17 11 11 11 12 11 9 9 6 13 15 19 21 15 6 6 5 7 6 7 5 6 5 4 2 4 4 5 7 6 5 5 7 14 18 20 17 17 18
15 18 5 8 14 15 11 11 10 10 11 9 10 6 13 19 19 13 11 8 8 5 7 6 7 4 4 5 4 2 3 4 7 10 9 7 8 9 8 18 18 19 18
20 21 23 8 15 15 15 10 10 11 8 11 10 11 8 14 17 16 14 11 8 9 7 7 6 9 6 6 7 5 3 5 3 5 13 8 8 6 6 9 13 17 18
24 21 22 22 12 17 16 12 15 12 14 9 11 10 12 11 11 17 14 13 13 6 11 9 9 7 8 6 4 9 8 2 2 4 0 9 8 7 7 5 6 13 18
23 21 19 21 23 24 18 16 10 16 8 11 8 10 12 11 13 12 13 13 13 11 7 12 9 12 8 9 7 4 9 8 5 5 4 3 3 4 5 6 6 7 13
20 22 20 21 22 23 23 5 9 10 11 2 2 5 6 8 9 14 15 14 14 12 14 8 13 10 13 10 10 10 5 8 7 5 6 7 7 5 5 4 5 5 10
Wind_Direction
125 137 138 135 134 134 132 131 127 125 123 120 115 111 109 107 109 109 110 112 111 111 113 109 99 92 90 89 88 88 88 89 91 92 91 86 80 77 91 101 92 87 84
128 140 140 137 139 138 136 135 132 129 127 127 123 119 117 115 115 116 116 116 114 115 116 111 105 102 100 98 95 98 104 107 108 106 99 89 82 78 77 81 86 89 86
130 138 145 139 143 142 139 139 137 133 131 131 130 127 125 121 120 119 118 120 121 120 119 116 113 111 111 105 107 115 123 126 133 138 125 97 82 78 80 84 88 87 87
132 142 146 143 144 145 141 141 142 138 136 135 135 131 130 126 124 123 122 123 123 123 124 123 122 120 118 116 122 133 137 142 149 163 121 106 92 84 86 92 94 99 97
137 147 148 145 144 147 144 143 146 142 140 139 141 137 133 131 128 127 128 127 128 129 131 132 129 125 124 127 136 153 160 156 165 204 125 114 106 99 98 102 100 95 108
141 148 146 146 143 148 146 144 149 145 142 142 143 141 138 136 132 133 134 134 136 138 138 136 132 131 134 134 150 184 173 188 237 251 105 115 107 117 104 97 100 99 102
150 121 146 147 143 148 149 147 150 149 145 146 146 145 140 140 138 140 140 140 143 144 141 137 136 138 139 141 163 198 241 250 259 247 110 105 122 130 123 113 114 112 110
124 131 141 148 147 149 150 150 152 152 150 149 148 148 144 146 146 147 149 150 150 146 142 142 142 142 142 145 170 228 261 287 300 247 124 122 140 140 135 132 127 126 126
119 128 141 158 155 150 150 151 154 156 154 153 152 153 152 156 153 153 156 158 157 154 151 150 149 147 145 148 170 237 278 292 297 294 124 132 145 146 146 148 147 151 154
114 127 145 155 165 163 155 152 157 158 157 157 156 158 160 158 159 158 159 161 163 164 160 160 159 155 154 160 183 246 278 291 278 274 123 144 148 150 158 162 166 174 183
109 129 147 163 167 170 165 161 154 156 157 157 156 163 159 164 168 162 179 166 170 171 172 170 169 168 171 182 203 236 275 283 282 233 136 151 152 156 168 176 183 191 200
145 139 156 173 176 177 170 159 169 165 165 169 170 168 175 179 178 176 174 168 173 177 179 179 179 185 198 206 214 231 255 262 274 308 142 156 154 160 175 187 193 201 210
172 169 170 184 182 183 174 157 174 172 175 182 181 174 193 190 179 182 142 160 165 181 183 185 187 201 214 240 201 197 227 253 257 273 155 163 163 165 179 192 202 209 216
174 175 169 188 180 190 175 163 180 174 179 183 186 178 199 200 169 184 162 172 179 176 199 186 195 210 226 239 258 230 215 247 247 290 164 173 173 174 184 196 206 213 221
193 181 169 177 182 194 219 169 188 181 185 186 181 182 199 208 167 178 181 175 183 177 201 185 204 197 218 241 251 272 292 246 283 305 168 185 184 186 195 202 212 217 222
209 179 171 173 178 193 214 173 199 185 182 185 184 185 198 200 168 177 217 175 184 184 192 200 197 195 205 215 234 239 261 265 251 238 257 198 203 206 204 208 214 219 223
209 199 173 174 174 186 209 183 197 189 180 185 184 186 191 210 183 182 212 184 189 200 185 201 194 211 187 214 221 213 218 237 254 271 259 236 213 220 220 218 216 218 223
229 212 177 179 174 178 197 225 196 195 196 186 194 185 185 209 198 189 195 205 208 186 181 183 196 193 214 209 212 219 213 211 220 226 242 261 264 213 226 225 223 220 221
259 191 172 182 178 178 183 209 204 217 199 193 193 181 177 195 204 188 214 208 203 191 190 186 194 186 198 212 238 231 224 221 212 222 216 221 231 251 236 225 228 228 225
311 222 189 175 185 176 181 190 214 212 210 215 193 204 179 187 198 218 202 229 187 186 192 188 198 203 204 196 224 239 218 214 217 227 233 224 214 221 232 244 221 228 232
317 307 196 174 179 177 184 192 204 203 213 205 215 199 180 189 194 202 222 208 215 190 194 196 190 211 218 223 249 271 270 228 219 222 223 218 220 220 214 217 215 207 222
315 328 299 222 173 185 188 193 202 217 203 204 212 218 194 185 194 195 207 227 207 199 194 198 194 204 221 195 198 269 270 285 242 231 227 223 229 221 212 212 214 216 219
10 357 344 292 191 184 196 193 205 199 231 201 200 212 215 184 189 194 195 216 231 205 203 203 193 196 205 220 200 184 203 230 252 220 218 208 218 214 218 222 218 217 215
357 356 357 345 333 188 190 207 206 215 209 219 205 197 208 198 189 193 200 204 223 227 208 203 205 202 201 212 206 216 238 198 276 325 236 202 208 203 201 214 224 219 207
2 0 4 2 10 2 178 198 209 222 217 210 216 196 193 195 199 203 198 208 207 221 227 211 203 209 203 216 229 196 218 230 216 212 273 289 274 210 211 207 209 218 223
1 9 8 11 14 18 25 297 214 219 241 231 254 207 210 209 208 206 211 204 212 210 222 222 215 201 211 213 219 231 201 202 213 195 214 232 231 239 206 192 212 218 228